Flag for Norway Weather past 2 weeks in Kongsvinger, Norway

Now
52 °F

Clear.


Feels Like: 52 °F
Forecast: 49 / 64 °F
Wind: 2 mph from North

Location: Oslo Gardermoen Airport

Current Time: Jul 30, 2015 at 2:25:03 AM

Latest Report: Jul 30, 2015 at 1:50 AM


Visibility: 10 mi

Pressure: 29.47 "Hg

Humidity: 94%

Dew point: 50 °F

Location of KongsvingerLocation

Historic Weather in Kongsvinger — Graph

°F

Kongsvinger temperature yesterday

Maximum temperature yesterday: 61 °F (at 1:50 PM)
Minimum temperature yesterday: 54 °F (at 12:50 AM)
Average temperature yesterday: 56 °F

Past Weeks' High & Low Weather Summary

 TemperatureHumidityPressure
High70 °F (Jul 22, 2:20 PM)100% (Jul 18, 6:50 AM)30.07 "Hg (Jul 18, 6:50 AM)
Low43 °F (Jul 25, 4:20 AM)35% (Jul 17, 5:20 PM)29.36 "Hg (Jul 26, 4:20 PM)
Average57 °F74%29.66 "Hg
* Reported Jul 15 12:20 AM — Jul 30 12:50 AM, Kongsvinger, Weather by CustomWeather, © 2015

Note: Actual official high and low records may vary slightly from our data, if they occured in-between our weather recording intervals... More about our weather records

Advertising

Kongsvinger weather history for previous 24 hours

 ConditionsComfort  
Time TempWeatherWind HumidityBarometerVisibility
12:50 AM
Thu, Jul 30
54 °FPassing clouds.3 mph94%29.47 "HgN/A
12:20 AM54 °FClear.1 mph94%29.47 "Hg10 mi
11:50 PM
Wed, Jul 29
55 °FClear.3 mph94%29.47 "Hg10 mi
11:20 PM55 °FPassing clouds.No wind94%29.47 "HgN/A
10:50 PM55 °FBroken clouds.No wind94%29.47 "HgN/A
10:20 PM55 °FBroken clouds.3 mph94%29.47 "HgN/A
9:50 PM55 °FPartly sunny.5 mph94%29.47 "HgN/A
9:20 PM55 °FSunny.6 mph94%29.47 "Hg10 mi
8:50 PM55 °FSprinkles. Broken clouds.3 mph94%29.47 "HgN/A
8:20 PM55 °FSprinkles. Broken clouds.5 mph94%29.47 "HgN/A
7:50 PM55 °FLight rain. Broken clouds.5 mph94%29.47 "HgN/A
7:20 PM55 °FSprinkles. Partly sunny.5 mph94%29.47 "HgN/A
6:50 PM55 °FRain. Partly sunny.3 mph94%29.47 "HgN/A
6:20 PM55 °FRain. Partly sunny.6 mph94%29.47 "Hg6 mi
5:50 PM57 °FLots of rain. Partly sunny.8 mph88%29.47 "Hg6 mi
5:20 PM57 °FSleet. Partly sunny.7 mph88%29.45 "HgN/A
4:50 PM59 °FSleet. Broken clouds.5 mph82%29.45 "HgN/A
4:20 PM59 °FRain showers. Partly sunny.3 mph88%29.45 "HgN/A
3:50 PM59 °FMixture of precip. Partly sunny.5 mph88%29.45 "HgN/A
3:20 PM59 °FRain showers. Partly sunny.12 mph82%29.45 "HgN/A
2:50 PM61 °FSprinkles. Partly sunny.13 mph77%29.45 "HgN/A
2:20 PM61 °FPartly sunny.10 mph77%29.45 "HgN/A
1:50 PM61 °FPartly sunny.12 mph77%29.45 "HgN/A
1:20 PM59 °FPartly sunny.12 mph88%29.45 "HgN/A
12:50 PM59 °FPartly sunny.13 mph88%29.45 "HgN/A
12:20 PM57 °FPartly sunny.12 mph88%29.45 "HgN/A
11:50 AM57 °FPartly sunny.13 mph88%29.47 "HgN/A
11:20 AM55 °FLight rain. Partly sunny.12 mph94%29.47 "HgN/A
10:50 AM55 °FScattered showers. Partly sunny.10 mph94%29.47 "HgN/A
10:20 AM54 °FLight rain. Broken clouds.13 mph94%29.47 "HgN/A
9:50 AM55 °FRain showers. Broken clouds.13 mph94%29.47 "Hg4 mi
9:20 AM55 °FSprinkles. Broken clouds.13 mph94%29.47 "Hg6 mi
8:50 AM54 °FSprinkles. Broken clouds.10 mph94%29.47 "HgN/A
8:20 AM54 °FLight rain. Partly sunny.9 mph94%29.47 "HgN/A
7:50 AM54 °FLight rain. Partly sunny.10 mph94%29.47 "HgN/A
7:20 AM54 °FSprinkles. Partly sunny.10 mph94%29.47 "HgN/A
6:50 AM54 °FRain showers. Partly sunny.10 mph94%29.47 "HgN/A
6:20 AM54 °FPartly sunny.9 mph94%29.47 "HgN/A
5:50 AM54 °FOvercast.10 mph94%29.47 "HgN/A
4:50 AM54 °FLight rain. Passing clouds.9 mph94%29.47 "HgN/A
4:20 AM54 °FPassing clouds.12 mph94%29.47 "HgN/A
3:50 AM54 °FPassing clouds.10 mph94%29.50 "HgN/A
2:50 AM54 °FPartly cloudy.8 mph94%29.50 "HgN/A
2:20 AM54 °FPassing clouds.9 mph94%29.50 "HgN/A
Weather by CustomWeather, © 2015

See weather overviewHow to use our weather pages